MELBOURNE AIRPORT, Australia

10:09 PM AEDT on February 26, 2017 (GMT +1100)
Melbourne International

Weather History for YMML - July, 2013

Change the Weather History Date:

Monday, July 8, 2013

  Actual Average Record
Temperature  
Mean Temperature 47 °F -  
Max Temperature 57 °F 54 °F 60 °F (1999)
Min Temperature 37 °F 41 °F 31 °F (2012)
Degree Days  
Heating Degree Days 18    
Moisture  
Dew Point 38 °F    
Average Humidity 73    
Maximum Humidity 93    
Minimum Humidity 43    
Precipitation  
Precipitation 0.00 in 0.06 in - ()
Sea Level Pressure  
Sea Level Pressure 30.47 in    
Wind  
Wind Speed 8 mph ()    
Max Wind Speed 12 mph    
Max Gust Speed -    
Visibility 7.0 miles    
Events      
Averages and records for this station are not official NWS values.
T = Trace of Precipitation, MM = Missing Value Source: Averaged Metar Reports

Daily Weather History Graph

Daily Weather History Graph

Search for Another Location

Airport or City:

Trip Planner

Search our weather history database for the weather conditions in past years. The results will help you decide how hot, cold, wet, or windy it might be!

Date:

Astronomy

Jul. 08, 2013 Rise Set
Actual Time 7:35 AM AEST 5:16 PM AEST
Civil Twilight 7:06 AM AEST 5:45 PM AEST
Nautical Twilight 6:33 AM AEST 6:17 PM AEST
Astronomical Twilight 6:02 AM AEST 6:49 PM AEST
Moon 7:05 AM AEST (7/8) 5:24 PM AEST (7/8)
Length of Visible Light 10h 38m
Length of Day
9h 40m
Waning Crescent, 0% of the Moon is Illuminated
Jul 8
Waning Crescent
Jul 8
New
Jul 16
First Quarter
Jul 23
Full
Jul 30
Last Quarter

Hourly Weather History & Observations

Time (AEST) Temp. Windchill Dew Point Humidity Pressure Visibility Wind Dir Wind Speed Gust Speed Precip Events Conditions
12:00 AM 44 °F - 41 °F 87% 30.38 in 19 mi North 11.5 mph - -   Partly Cloudy
12:00 AM 44.6 °F 38.8 °F 41.0 °F 87% 30.36 in 6.2 mi North 11.5 mph - N/A   Partly Cloudy
12:30 AM 42.8 °F 38.0 °F 39.2 °F 87% 30.36 in 6.2 mi NNW 8.1 mph - N/A   Partly Cloudy
1:00 AM 42 °F - 39 °F 83% 30.38 in - North 11.5 mph - -  
1:00 AM 41.0 °F 34.3 °F 39.2 °F 93% 30.36 in 6.2 mi North 11.5 mph - N/A   Partly Cloudy
1:30 AM 41.0 °F 35.8 °F 37.4 °F 87% 30.36 in 6.2 mi North 8.1 mph - N/A   Partly Cloudy
2:00 AM 41.0 °F 35.8 °F 37.4 °F 87% 30.39 in 6.2 mi NNW 8.1 mph - N/A   Partly Cloudy
2:30 AM 42.8 °F 36.6 °F 37.4 °F 81% 30.39 in 6.2 mi North 11.5 mph - N/A   Partly Cloudy
3:00 AM 42 °F - 38 °F 79% 30.40 in 19 mi NNW 10.4 mph - -   Partly Cloudy
3:00 AM 42.8 °F 37.0 °F 37.4 °F 81% 30.39 in 6.2 mi NNW 10.4 mph - N/A   Partly Cloudy
3:30 AM 41.0 °F 34.7 °F 37.4 °F 87% 30.39 in 6.2 mi NNW 10.4 mph - N/A   Partly Cloudy
4:00 AM 40 °F - 36 °F 82% 30.41 in - North 9.2 mph - -  
4:00 AM 41.0 °F 35.2 °F 37.4 °F 87% 30.39 in 6.2 mi North 9.2 mph - N/A   Partly Cloudy
4:30 AM 41.0 °F 34.7 °F 35.6 °F 81% 30.39 in 6.2 mi North 10.4 mph - N/A   Partly Cloudy
5:00 AM 39.2 °F 33.0 °F 35.6 °F 87% 30.39 in 6.2 mi North 9.2 mph - N/A   Partly Cloudy
5:30 AM 41.0 °F 34.7 °F 35.6 °F 81% 30.42 in 6.2 mi North 10.4 mph - N/A   Partly Cloudy
6:00 AM 40 °F - 35 °F 75% 30.44 in 19 mi North 10.4 mph - -   Partly Cloudy
6:00 AM 39.2 °F 32.5 °F 35.6 °F 87% 30.42 in 6.2 mi North 10.4 mph - N/A   Partly Cloudy
6:30 AM 39.2 °F 33.0 °F 33.8 °F 81% 30.45 in 6.2 mi North 9.2 mph - N/A   Partly Cloudy
7:00 AM 38 °F - 34 °F 80% 30.47 in - North 10.4 mph - -  
7:00 AM 37.4 °F 30.3 °F 33.8 °F 87% 30.45 in 6.2 mi North 10.4 mph - N/A   Partly Cloudy
7:30 AM 39.2 °F 32.5 °F 33.8 °F 81% 30.45 in 6.2 mi North 10.4 mph - N/A   Partly Cloudy
8:00 AM 41.0 °F 34.7 °F 33.8 °F 76% 30.48 in 6.2 mi North 10.4 mph - N/A   Partly Cloudy
8:30 AM 39.2 °F 32.0 °F 35.6 °F 87% 30.48 in 6.2 mi North 11.5 mph - N/A   Partly Cloudy
9:00 AM 44 °F - 36 °F 65% 30.51 in 25 mi North 10.4 mph - -   Partly Cloudy
9:00 AM 44.6 °F 39.2 °F 35.6 °F 71% 30.48 in 6.2 mi North 10.4 mph - N/A   Partly Cloudy
9:30 AM 46.4 °F 42.9 °F 37.4 °F 71% 30.48 in 6.2 mi North 6.9 mph - N/A   Partly Cloudy
10:00 AM 50 °F - 38 °F 53% 30.52 in - NNW 6.9 mph - -  
10:00 AM 50.0 °F - 37.4 °F 62% 30.51 in 6.2 mi NNW 6.9 mph - N/A   Partly Cloudy
10:30 AM 51.8 °F - 39.2 °F 62% 30.51 in 6.2 mi WNW 5.8 mph - N/A   Partly Cloudy
11:00 AM 51.8 °F - 39.2 °F 62% 30.51 in 6.2 mi West 5.8 mph - N/A   Partly Cloudy
11:30 AM 53.6 °F - 39.2 °F 58% 30.51 in 6.2 mi WSW 8.1 mph - N/A   Partly Cloudy
12:00 PM 54 °F - 39 °F 45% 30.52 in 25 mi WSW 10.4 mph - -   Partly Cloudy
12:00 PM 53.6 °F - 39.2 °F 58% 30.51 in 6.2 mi SW 10.4 mph - N/A   Partly Cloudy
12:30 PM 55.4 °F - 39.2 °F 54% 30.48 in 6.2 mi SW 9.2 mph - N/A   Scattered Clouds
1:00 PM 54 °F - 38 °F 44% 30.50 in - SW 6.9 mph - -  
1:00 PM 53.6 °F - 39.2 °F 58% 30.48 in 6.2 mi SW 6.9 mph - N/A   Mostly Cloudy
1:30 PM 55.4 °F - 37.4 °F 51% 30.48 in 6.2 mi SSW 10.4 mph - N/A   Mostly Cloudy
2:00 PM 57.2 °F - 37.4 °F 48% 30.48 in 6.2 mi SSW 10.4 mph - N/A   Mostly Cloudy
2:30 PM 53.6 °F - 39.2 °F 58% 30.48 in 6.2 mi South 10.4 mph - N/A   Mostly Cloudy
3:00 PM 53 °F - 40 °F 50% 30.50 in 25 mi SSW 5.8 mph - -   Mostly Cloudy
3:00 PM 53.6 °F - 39.2 °F 58% 30.48 in 6.2 mi SSW 5.8 mph - N/A   Mostly Cloudy
3:30 PM 55.4 °F - 39.2 °F 54% 30.48 in 6.2 mi Calm Calm - N/A   Mostly Cloudy
4:00 PM 55 °F - 39 °F 43% 30.50 in - South 6.9 mph - -  
4:00 PM 55.4 °F - 39.2 °F 54% 30.48 in 6.2 mi South 6.9 mph - N/A   Scattered Clouds
4:30 PM 53.6 °F - 42.8 °F 67% 30.48 in 6.2 mi SSE 8.1 mph - N/A   Scattered Clouds
5:00 PM 51.8 °F - 41.0 °F 67% 30.48 in 6.2 mi South 6.9 mph - N/A   Scattered Clouds
5:30 PM 50.0 °F - 42.8 °F 76% 30.51 in 6.2 mi South 4.6 mph - N/A   Scattered Clouds
6:00 PM 51 °F - 42 °F 61% 30.53 in 25 mi Calm Calm - -   Partly Cloudy
6:00 PM 50.0 °F - 41.0 °F 71% 30.51 in 6.2 mi Calm Calm - N/A   Scattered Clouds
6:30 PM 48.2 °F - 41.0 °F 76% 30.51 in 6.2 mi NNE 5.8 mph - N/A   Scattered Clouds
7:00 PM 49 °F - 41 °F 66% 30.54 in - North 4.6 mph - -  
7:00 PM 50.0 °F - 41.0 °F 71% 30.54 in 6.2 mi North 4.6 mph - N/A   Scattered Clouds
7:30 PM 48.2 °F - 41.0 °F 76% 30.54 in 6.2 mi WNW 5.8 mph - N/A   Mostly Cloudy
8:00 PM 46.4 °F - 41.0 °F 81% 30.54 in - North 2.3 mph - N/A   Clear
8:30 PM 44.6 °F 42.2 °F 39.2 °F 81% 30.54 in - WNW 4.6 mph - N/A   Clear
9:00 PM 43 °F - 39 °F 81% 30.56 in 25 mi North 4.6 mph - -   Partly Cloudy
9:00 PM 42.8 °F 40.1 °F 39.2 °F 87% 30.54 in - North 4.6 mph - N/A   Clear
9:30 PM 42.8 °F 38.6 °F 39.2 °F 87% 30.54 in 6.2 mi North 6.9 mph - N/A   Partly Cloudy
10:00 PM 43 °F - 39 °F 81% 30.56 in - NNW 2.3 mph - -  
10:00 PM 42.8 °F - 39.2 °F 87% 30.54 in 6.2 mi NNW 2.3 mph - N/A   Partly Cloudy
10:30 PM 41.0 °F 39.0 °F 39.2 °F 93% 30.54 in 6.2 mi North 3.5 mph - N/A   Partly Cloudy
11:00 PM 42.8 °F 38.6 °F 39.2 °F 87% 30.54 in 6.2 mi North 6.9 mph - N/A   Partly Cloudy
11:30 PM 41.0 °F 35.2 °F 37.4 °F 87% 30.57 in 6.2 mi North 9.2 mph - N/A   Partly Cloudy